Regional Weather Roundup
Issued by NWS

Home | Current Version | Previous Version | Graphics & Text | Print | Product List | Glossary On
Versions: 1 2 3 4 5 6 7 8 9 10 11 12 13 14 15 16 17 18 19 20 21 22 23 24 25 26 27 28 29 30 31 32 33 34 35 36 37 38 39 40 41 42 43 44 45 46 47 48 49 50
000
ASUS43 KFSD 221402
RWRSD

WEATHER ROUNDUP FOR SOUTH DAKOTA
NATIONAL WEATHER SERVICE SIOUX FALLS SD
900 AM CDT FRI JUL 22 2016

NOTE: "FAIR" INDICATES FEW OR NO CLOUDS BELOW 12,000 FEET WITH NO
SIGNIFICANT WEATHER AND/OR OBSTRUCTIONS TO VISIBILITY.


SDZ001>005-009-010-012>017-221500-
NORTHWEST AND NORTH CENTRAL SOUTH DAKOTA

CITY           SKY/WX    TMP DP  RH WIND       PRES   REMARKS
BUFFALO          N/A     71  63  75 E14       30.00R
FAITH            N/A     80  71  74 E7        30.02S
MOBRIDGE       CLOUDY    80  75  84 SE9       29.99S
$$

SDZ012>016-024>037-041>051-057-063-072>074-221500-
SOUTHWEST AND SOUTH CENTRAL SOUTH DAKOTA

CITY           SKY/WX    TMP DP  RH WIND       PRES   REMARKS
RAPID CTY ARPT CLOUDY    78  64  61 SE5       30.05S
PIERRE         CLOUDY    79  77  94 SE6       29.99S
CUSTER         CLOUDY    76  60  57 CALM      30.25S
ELLSWORTH AFB  CLOUDY    82  58  43 SE2       30.04F
PHILIP         CLOUDY    81  71  71 CALM      30.01S
PINE RIDGE     CLOUDY    75  71  87 CALM      30.09F
WINNER         FOG       79  76  90 N6        30.03R VSB 1/4
$$

SDZ004>011-016>023-039-040-221500-
NORTHEAST SOUTH DAKOTA

CITY           SKY/WX    TMP DP  RH WIND       PRES   REMARKS
ABERDEEN       PTSUNNY   78  72  81 NE7       30.01S
WATERTOWN      SUNNY     83  69  62 E8        30.04R
BROOKINGS      SUNNY     79  73  82 NE9       30.02
SISSETON         N/A     75  72  90 CALM      30.02S
$$

SDZ017-020-022-023-036>040-048>070-221500-
SOUTHEAST SOUTH DAKOTA

CITY           SKY/WX    TMP DP  RH WIND       PRES   REMARKS
SIOUX FALLS    MOSUNNY   84  77  79 E12       29.96S
HURON          MOSUNNY   81  74  79 E6        29.99S
CHAMBERLAIN    CLOUDY    83  80  90 NE5       30.00S HX  96
MITCHELL       CLOUDY    82  78  88 N7        29.98R
YANKTON        PTSUNNY   82  79  89 E8        29.92S
$$

ABBREVIATIONS USED IN REMARKS
   TC - TEMPERATURE IN CELSIUS
  WCI - WIND CHILL INDEX
   HX - HEAT INDEX
  VSB - VISIBILITY





USA.gov is the U.S. government's official web portal to all federal, state and local government web resources and services.